Hourly Weather Roundup
Issued by NWS Central Illinois

Home | Current Version | Previous Version | Text Only | Print | Product List | Glossary On
Versions: 1 2 3 4 5 6 7 8 9 10 11 12 13 14 15 16 17 18 19 20 21 22 23 24 25 26 27 28 29 30 31 32 33 34 35 36 37 38 39 40 41 42 43 44 45 46 47 48 49 50
000
NZUS43 KILX 241410
HWRILX

AREA WEATHER ROUNDUP
NATIONAL WEATHER SERVICE, LINCOLN IL
900 AM CDT SAT SEP 24 2016


CITY           SKY/WX    TMP DP  RH WIND       PRES   REMARKS
BLOOMINGTON    CLOUDY    69  67  93 E8        30.17R FOG
CHAMPAIGN      CLOUDY    69  67  93 NE8       30.16R FOG
DANVILLE       CLOUDY    68  66  93 E6        30.14S FOG
DECATUR        SUNNY     71  67  87 E3        30.15R FOG
EFFINGHAM      SUNNY     75  72  91 CALM      30.16S
FLORA          SUNNY     76  70  80 CALM      30.14F
GALESBURG      CLOUDY    67  66  97 E5        30.14S FOG
JACKSONVILLE   SUNNY     72  67  85 CALM      30.13S
LACON          CLOUDY    70  66  89 E7        30.14S FOG
LAWRENCEVILLE  SUNNY     73  68  84 CALM      30.14S HAZE
LITCHFIELD     SUNNY     75  67  74 CALM      30.14S
$$


CITY           SKY/WX    TMP DP  RH WIND       PRES   REMARKS
LINCOLN        NOT AVBL
MACOMB         LGT RAIN  66  66 100 E6        30.16R VSB 1/4
MATTOON        SUNNY     73  67  81 CALM      30.14S
MT CARMEL AP   SUNNY     73  67  84 CALM      30.14S HAZE
OLNEY-NOBLE AP SUNNY     73  70  88 CALM      30.14S
PARIS          SUNNY     72  68  88 CALM      30.16R
PEORIA         CLOUDY    70  68  93 E8        30.15R FOG
PONTIAC        CLOUDY    70  70  99 SE7       30.17S FOG
RANTOUL        CLOUDY    71  68  89 E8        30.16S FOG
ROBINSON       SUNNY     69  69 100 CALM      30.15S FOG
SPRINGFIELD    SUNNY     72  68  87 CALM      30.14R FOG
TAYLORVILLE    SUNNY     73  67  83 CALM      30.13S
$$

...REGIONAL REPORTS...


CITY           SKY/WX    TMP DP  RH WIND       PRES   REMARKS
CHICAGO O`HARE CLOUDY    67  61  81 E9        30.19S
KANKAKEE       CLOUDY    68  66  93 E7        30.18R FOG
MOLINE         CLOUDY    69  65  86 E10       30.14R FOG
MOUNT STERLING SUNNY     69  67  93 SE3       30.12S FOG
MOUNT VERNON   SUNNY     72  64  78 CALM      30.14S
PITTSFIELD     MOSUNNY   71  68  90 CALM      30.13S
QUINCY         SUNNY     73  68  84 SE8       30.11S
ROCKFORD       CLOUDY    67  61  81 E8        30.20R
$$


CITY           SKY/WX    TMP DP  RH WIND       PRES   REMARKS
BURLINGTON     CLOUDY    67  67 100 SE8       30.12S FOG
CEDAR RAPIDS   CLOUDY    67  67 100 SE9       30.12S FOG
DES MOINES     MOSUNNY   71  67  87 SE8       30.05S FOG
KIRKSVILLE     SUNNY     71  66  84 SE6       30.11R
OTTUMWA        PTSUNNY   69  67  93 E10       30.10R FOG
ST LOUIS       MOSUNNY   81  66  60 CALM      30.12S HX  83
$$


CITY           SKY/WX    TMP DP  RH WIND       PRES   REMARKS
TERRE HAUTE    SUNNY     74  67  78 E3        30.15R
EVANSVILLE     SUNNY     75  68  78 CALM      30.14S
INDIANAPOLIS   CLOUDY    69  66  90 E7        30.16R FOG
LAFAYETTE      CLOUDY    68  66  93 E9        30.17R FOG
MADISON        CLOUDY    61  59  93 E9        30.21S
MILWAUKEE      CLOUDY    66  58  75 E14       30.23S
$$





USA.gov is the U.S. government's official web portal to all federal, state and local government web resources and services.